Location: Newark
(44.3867°N, 6.6531°E)
Time: 15:26:05
(UTC+00:00)

Envisat - Pass Details

Date: 26 January 2020
Orbit: 764 x 766 km, 98.1° (Epoch: 17 February)

Event Time Altitude Azimuth Distance (km) Brightness Sun altitude
Rises 05:34:24 0° 21° (NNE) 3,241 6.4 -15.0°
Reaches altitude 10° 05:36:55 10° 31° (NNE) 2,310 5.7 -14.6°
Maximum altitude 05:41:32 34° 96° (E) 1,250 4.9 -13.8°
Drops below altitude 10° 05:46:06 10° 161° (SSE) 2,294 5.9 -13.0°
Sets 05:48:35 0° 170° (S) 3,215 6.6 -12.6°
